Location: *
(50.5492°N, 7.7469°E)
Time: 06:57:56
(UTC+00:00)

SL-27 R/B - Pass Details

Date: 21 October 2019
Orbit: 421 x 472 km, 74.7° (Epoch: 16 November)

Event Time Altitude Azimuth Distance (km) Brightness Sun altitude
Rises 18:20:04 0° 344° (NNW) 2,391 6.4 -18.8°
Reaches altitude 10° 18:22:18 10° 356° (N) 1,520 5.2 -19.2°
Enters shadow 18:23:40 20° 13° (NNE) 1,067 4.2 -19.4°
